User: anonymous
Location: Oshawa
(43.9000°N, 78.8670°W)
Time: 17:18:15
(UTC-04:00)
Language:

Cosmos 1500 - Orbit

View from above orbital plane
View from above orbital plane
View from above satellite
View from above satellite

Ground track
Ground track

The orbit data is extracted from the following two-line orbital elements,

1 14372U 83099A   14245.12822535  .00002184  00000-0  12631-3 0  6189
2 14372 082.5160 267.5761 0018035 024.1222 034.2930 15.11633621683451
Epoch (UTC): 02 September 2014 03:04:38
Eccentricity: 0.0018035
inclination: 82.5160°
perigee height: 519 km
apogee height: 543 km
right ascension of ascending node: 267.5761°
argument of perigee: 24.1222°
revolutions per day: 15.11633621
mean anomaly at epoch: 34.2930°
orbit number at epoch: 68345

The dashed part of the orbit path shows where the satellite is in the earth's shadow,  

DLR